默认 日期 大小 文件数 浏览量 最新下载 xml
3.65磁力链接相关资源由用户搜索指令自动获取,结果来源于网络,本站不存储任何资料,亦不承担任何责任,请于24小时内删除,搜索到1630个磁力,用时32ms。
    ... TV online v2.5.3 Premium Mod Apk {CracksHash ... - Secure Proxy vV4.0.3 Premium Mod Apk {CracksHash}.apk ... - IPTV player v1.9.3.2 Premium Mod Apk {CracksHash ... Story templates v5.4.3 Premium Mod Apk {CracksHash ... Photo Background Change Editor v5.3.11 Premium Mod Apk { ...
创建时间: 2022-02-05 10:14:51 大小:3.2 GB 文件数量:68 热度:4 最近下载:2025-02-27 08:50:02
    ... TV online v2.5.3 Premium Mod Apk {CracksHash ... - Secure Proxy vV4.0.3 Premium Mod Apk {CracksHash}.apk ... - IPTV player v1.9.3.2 Premium Mod Apk {CracksHash ... Story templates v5.4.3 Premium Mod Apk {CracksHash ... Photo Background Change Editor v5.3.11 Premium Mod Apk { ...
创建时间: 2022-02-05 10:47:06 大小:3.2 GB 文件数量:68 热度:4 最近下载:2025-03-09 04:46:03
    ... .-truefrench.-dvdrip.x-264.-ac-3-gismo-65_meta.xml": 5623, "tintin ... .-truefrench.-dvdrip.x-264.-ac-3-gismo-65_meta.sqlite": 32768}
创建时间: 2022-03-08 12:55:33 大小:1.9 GB 文件数量:5 热度:7 最近下载:2025-06-03 23:46:02
    ... Based Forum.url": 377, "For $3, Get Anything Official like Windows ...
创建时间: 2022-04-17 05:53:53 大小:1.38 GB 文件数量:33 热度:5 最近下载:2025-10-14 06:49:03
    {"packages": {"AAM": {"IPC": {"IPC.sig": 1847, "IPC.pima": 635607, "IPC.pimx": 58852}}, "ADC": {"LCC": {"LCC.sig": 1849, "LCC.pima": 10935986, "LCC.pimx": 14446}, "Core": {"Core.sig": 1849, "Core.pima": 1416042, "Core.pimx": 1742}, "HDBox": {"HDBox.sig": ...
创建时间: 2022-04-17 06:39:38 大小:1.38 GB 文件数量:28 热度:4 最近下载:2025-01-23 08:51:03
    {"Adobe Character Animator 2022 v22.3.0.65 Multilingual.iso": 1492293632}
创建时间: 2022-04-20 05:09:02 大小:1.39 GB 文件数量:1 热度:4 最近下载:2025-01-07 00:25:04
    {".pad": {"4581": 4581, "74062": 74062, "81423": 81423, "156822": 156822, "199463": 199463, "243431": 243431, "320930": 320930, "412969": 412969, "465436": 465436, "468752": 468752, "505657": 505657, "509842": 509842, "518125": 518125, "519028": 519028, " ...
创建时间: 2022-05-03 09:48:45 大小:1.4 GB 文件数量:57 热度:4 最近下载:2025-01-21 17:58:03
    {".pad": {"4581": 4581, "74062": 74062, "81423": 81423, "156822": 156822, "199463": 199463, "243431": 243431, "320930": 320930, "412969": 412969, "465436": 465436, "468752": 468752, "505657": 505657, "509842": 509842, "518125": 518125, "519028": 519028, " ...
创建时间: 2022-05-04 05:11:30 大小:1.4 GB 文件数量:57 热度:4 最近下载:2025-02-21 23:39:10
    {"video.mp4": 36583850, "抖音极品安卓APP.apk": 1239579}
创建时间: 2022-05-07 09:40:26 大小:36.07 MB 文件数量:2 热度:104 最近下载:2025-10-16 03:16:02
    {".pad": {"4581": 4581, "74062": 74062, "81423": 81423, "156822": 156822, "199463": 199463, "243431": 243431, "320930": 320930, "412969": 412969, "465436": 465436, "468752": 468752, "505657": 505657, "509842": 509842, "518125": 518125, "519028": 519028, " ...
创建时间: 2022-05-13 21:08:43 大小:1.4 GB 文件数量:57 热度:5 最近下载:2025-02-16 13:24:01
    {"rw.mp4": 145494260, "热舞.apk": 1267890}
创建时间: 2022-05-14 09:40:16 大小:139.96 MB 文件数量:2 热度:223 最近下载:2025-10-09 22:41:02
    {"福利.mp4": 63566017, "爱福利更新地址.htm": 5278, "爱福利绿色安卓手机登陆器.apk": 1723242, "电脑建议用非垄断浏览器,比如谷歌,IE.txt": 0}
创建时间: 2022-05-21 22:54:47 大小:62.27 MB 文件数量:4 热度:36 最近下载:2025-08-03 07:29:05
    {"Home.Sweet.Home.Survive.v0.3.0.65.Steam.part01.rar": 1048576000, ... Home.Sweet.Home.Survive.v0.3.0.65.Steam.part02.rar": 1048576000 ... Home.Sweet.Home.Survive.v0.3.0.65.Steam.part03.rar": 1048576000 ... Home.Sweet.Home.Survive.v0.3.0.65.Steam.part04.rar": 1048576000 ...
创建时间: 2022-07-06 09:50:09 大小:9.01 GB 文件数量:10 热度:3 最近下载:2025-02-06 12:39:06
    {"wsw65-a.avi": 733624320, "wsw65-b.avi": 723398656, "eastv @ sex8.cc.txt": 106, "1月经典回顾.chm": 5190776, "susun @ dfxz.org.txt": 83, "shouma520 @ SexInSex.txt": 88, "东方小镇 - dfxz.org.url": 134, "爱唯侦察-BT核工厂.url": 118, "爱唯侦察 - Powered by Discuz!.url": 132, "BT ...
创建时间: 2022-07-23 23:07:08 大小:1.36 GB 文件数量:11 热度:65 最近下载:2025-09-24 21:41:04
    {"福利.mp4": 63566017, "爱福利更新地址.htm": 5278, "电脑建议用非垄断浏览器,比如谷歌,IE.txt": 0}
创建时间: 2022-08-21 07:20:47 大小:60.63 MB 文件数量:3 热度:167 最近下载:2025-10-15 12:12:02
    {"bin": {"application.ini": 899, "defaultagent.ini": 932, "concrt140_app.dll": 138, "crashreporter.ini": 5977, "clrcompression.dll": 134, "dependentlibs.list": 446, "gazeinteraction.dll": 135, "gazeinputinternal.dll": 135}, "INSTALL.exe": 243720, " ...
创建时间: 2022-09-11 16:59:49 大小:251.48 KB 文件数量:10 热度:4 最近下载:2025-03-19 05:12:01
    {"setup.exe": 1597103, "FrozenFlame-1.ftp": 9648519053, "FrozenFlame-2.ftp": 956335}
创建时间: 2022-11-20 21:41:40 大小:8.99 GB 文件数量:3 热度:6 最近下载:2025-10-05 03:33:01
    ... .-french.-dvdrip.x-264.-ac-3-gismo-65_meta.xml": 4815, "le ... .-french.-dvdrip.x-264.-ac-3-gismo-65_meta.sqlite": 28672}
创建时间: 2022-12-13 23:27:00 大小:1.84 GB 文件数量:5 热度:3 最近下载:2025-02-05 05:25:04
    {"12357412FRCIIIREPCK.part1.rar": 1047527424, "12357412FRCIIIREPCK.part2.rar": 1047527424, "12357412FRCIIIREPCK.part3.rar": 1047527424, "12357412FRCIIIREPCK.part4.rar": 1047527424, "12357412FRCIIIREPCK.part5.rar": 805311461}
创建时间: 2023-01-05 20:43:05 大小:4.65 GB 文件数量:5 热度:2 最近下载:2025-01-12 02:38:07
    {"(win6666.top)精彩无限.rar": 140680897}
创建时间: 2023-02-01 22:01:14 大小:134.16 MB 文件数量:1 热度:95 最近下载:2025-10-16 17:02:30